星链-5554 (STARLINK-5554 )

导读 | 星芒AI

STARLINK-5554 是 SpaceX 星链计划中的一颗低轨通信卫星,属于第55批部署的星链卫星之一。该卫星运行在约550公里高的近地轨道,旨在为全球用户提供高速互联网服务。星链系统通过大规模卫星组网,提升网络覆盖范围,尤其改善偏远地区的网络接入条件。STARLINK-5554 采用先进推进和通信技术,具备自动避碰功能,以确保轨道安全。作为星链计划的一部分,它有助于构建全球宽带网络基础设施。

基本信息
目录编号:
56338
目录名称:
STARLINK-5554
国际标识:
2023-058X
轨道中心:
EARTH
卫星名称:
星链-5554
卫星全名:
星链-5554 (STARLINK-5554 )
卫星状态:
在轨 (已飞行969 天)
发射日期:
2023-04-27 UTC
国别 :
美国 (US)
星等 :
--
轨道信息
数据来源 国际轨道数据
星历时间: 2025-12-21T06:23:18+0800
16小时前
查看轨道信息
半长轴: 6941.144km
偏心率: 0.0002653
轨道倾角: 97.603°
近地点辐角 43.307°
升交点赤经 353.095°
平近点角 316.836°
近地点: 561.165km
远地点: 564.849km
周期: 95.919分钟
每日圈数: 15.012612
详细信息
固有亮度:
5
最大亮度:
2.5
卫星平台:
Starlink v1.5
覆盖范围:
全球
运营商:
太空探索技术公司
运营商所在国:
美国
制造商(研发单位):
太空探索技术公司
制造商所在国:
美国
使用方式:
暂无
卫星简介
星链(Starlink)计划是由太空探索技术公司(SpaceX)提出的一个巨型低轨卫星互联网星座项目,计划在2019年至2024年间在太空搭建由约1.2万颗卫星组成的“星链”网络,其中1584颗将部署在地球上空550千米处的近地轨道,并从2020年开始工作。该卫星仍在工作。
2D轨道图
3D轨道图
轨道高度分析图
轨道倾角分析图
轨道综合分析图
查看轨道综合分析图